This is the latest recevied weather packets stored in our database for station/object OH6LSL. If no packets are shown the sender has not sent any weather packets the latest 10 day(s).
| Time | Temp. | Humidity | Pressure | Rain* | Wind** | Luminosity | Snow |
|---|---|---|---|---|---|---|---|
| 1777441492 | 2.78° C | 54% | 1024.2 hPa | 0 mm | - | 60 W/m² | - |
| 1777434875 | 1.67° C | 48% | 1024.1 hPa | 0 mm | - | 32 W/m² | - |
| 1777431890 | 0° C | 48% | 1024.2 hPa | 0 mm | - | 21 W/m² | - |
| 1777431310 | -0.56° C | 49% | 1024.1 hPa | 0 mm | - | 25 W/m² | - |
| 1777428892 | -0.56° C | 54% | 1024.2 hPa | 0 mm | - | 5 W/m² | - |
| 1777427690 | -0.56° C | 55% | 1024.2 hPa | 0 mm | - | 0 W/m² | - |
| 1777427084 | -0.56° C | 56% | 1024.2 hPa | 0 mm | - | 0 W/m² | - |
| 1777425301 | -1.11° C | 59% | 1024.1 hPa | 0 mm | - | 0 W/m² | - |
| 1777421680 | -0.56° C | 61% | 1024.1 hPa | 0 mm | - | 0 W/m² | - |
| 1777419877 | -0.56° C | 64% | 1024.1 hPa | 0 mm | - | 0 W/m² | - |
| 1777419281 | -0.56° C | 63% | 1024.1 hPa | 0 mm | - | 0 W/m² | - |
| 1777417479 | -1.67° C | 67% | 1024 hPa | 0 mm | - | 0 W/m² | - |
| 1777415681 | -1.11° C | 65% | 1023.9 hPa | 0 mm | - | 0 W/m² | - |
| 1777414485 | -0.56° C | 63% | 1023.8 hPa | 0 mm | - | 0 W/m² | - |
| 1777412682 | 0° C | 61% | 1023.7 hPa | 0 mm | - | 0 W/m² | - |
| 1777412082 | 0.56° C | 58% | 1023.7 hPa | 0 mm | - | 0 W/m² | - |
| 1777410281 | -0.56° C | 64% | 1023.5 hPa | 0 mm | - | 0 W/m² | - |
| 1777404885 | 1.67° C | 60% | 1023.6 hPa | 0 mm | - | 0 W/m² | - |
| 1777402486 | 2.22° C | 60% | 1023.4 hPa | 0 mm | - | 0 W/m² | - |
| 1777400090 | 2.78° C | 56% | 1023.1 hPa | 0 mm | - | 11 W/m² | - |
| 1777398891 | 2.78° C | 52% | 1022.9 hPa | 0 mm | - | 14 W/m² | - |
| 1777397088 | 3.33° C | 54% | 1022.8 hPa | 0 mm | - | 19 W/m² | - |
| 1777395899 | 3.33° C | 50% | 1022.8 hPa | 0 mm | - | 21 W/m² | - |
| 1777386881 | 3.89° C | 50% | 1023 hPa | 0 mm | - | 42 W/m² | - |
| 1777385682 | 3.89° C | 50% | 1023.2 hPa | 0 mm | - | 93 W/m² | - |
* Rain latest hour (hover to see other rain measurements)
** Current wind speed in m/s (hover to see current wind gust speed)